Time,TemperatureF,DewpointF,PressureIn,WindDirection,WindDirectionDegrees,WindSpeedMPH,WindSpeedGustMPH,Humidity,HourlyPrecipIn,Conditions,Clouds,dailyrainin,SoftwareType,DateUTC
2013-02-10 00:05:00,63.8,57.5,30.17,NE,44,1.0,3.0,80,0.00,,,0.00,Wunderground v.1.15,2013-02-10 05:05:00,
2013-02-10 00:15:00,63.8,57.5,30.17,NE,34,2.0,3.0,80,0.00,,,0.00,Wunderground v.1.15,2013-02-10 05:15:00,
2013-02-10 00:30:00,63.6,57.7,30.17,ENE,75,2.0,3.0,81,0.00,,,0.00,Wunderground v.1.15,2013-02-10 05:30:00,
2013-02-10 00:45:00,63.4,57.8,30.16,NE,55,1.0,3.0,82,0.00,,,0.00,Wunderground v.1.15,2013-02-10 05:45:00,
2013-02-10 01:00:00,63.1,57.5,30.16,NE,55,0.0,0.0,82,0.00,,,0.00,Wunderground v.1.15,2013-02-10 06:00:00,
2013-02-10 01:15:00,62.9,57.7,30.16,ENE,71,1.0,4.0,83,0.00,,,0.00,Wunderground v.1.15,2013-02-10 06:15:00,
2013-02-10 01:30:00,62.7,57.5,30.16,ENE,62,1.0,4.0,83,0.00,,,0.00,Wunderground v.1.15,2013-02-10 06:30:00,
2013-02-10 01:40:00,62.6,57.4,30.16,ENE,65,1.0,1.0,83,0.00,,,0.00,Wunderground v.1.15,2013-02-10 06:40:00,
2013-02-10 01:45:00,62.6,57.4,30.16,ENE,75,1.0,4.0,83,0.00,,,0.00,Wunderground v.1.15,2013-02-10 06:45:00,
2013-02-10 01:55:00,62.6,57.7,30.16,ENE,64,1.0,6.0,84,0.00,,,0.00,Wunderground v.1.15,2013-02-10 06:55:00,
2013-02-10 02:00:00,62.5,57.6,30.16,ENE,67,2.0,4.0,84,0.00,,,0.00,Wunderground v.1.15,2013-02-10 07:00:00,
2013-02-10 02:10:00,62.4,57.5,30.16,ENE,74,1.0,1.0,84,0.00,,,0.00,Wunderground v.1.15,2013-02-10 07:10:00,
2013-02-10 02:15:00,62.4,57.8,30.15,ENE,60,1.0,2.0,85,0.00,,,0.00,Wunderground v.1.15,2013-02-10 07:15:00,
2013-02-10 02:25:00,62.3,57.7,30.15,NE,47,1.0,4.0,85,0.00,,,0.00,Wunderground v.1.15,2013-02-10 07:25:00,
2013-02-10 02:30:00,62.2,57.6,30.15,ENE,68,1.0,1.0,85,0.00,,,0.00,Wunderground v.1.15,2013-02-10 07:30:00,
2013-02-10 02:40:00,62.2,57.6,30.14,ENE,70,1.0,1.0,85,0.00,,,0.00,Wunderground v.1.15,2013-02-10 07:40:00,
2013-02-10 02:50:00,62.2,57.6,30.15,ENE,77,0.0,4.0,85,0.00,,,0.00,Wunderground v.1.15,2013-02-10 07:50:00,
2013-02-10 02:55:00,62.2,57.6,30.15,ENE,69,1.0,4.0,85,0.00,,,0.00,Wunderground v.1.15,2013-02-10 07:55:00,
2013-02-10 03:05:00,62.2,57.6,30.15,ENE,69,0.0,4.0,85,0.00,,,0.00,Wunderground v.1.15,2013-02-10 08:05:00,
2013-02-10 03:10:00,62.3,58.1,30.15,ENE,69,0.0,4.0,86,0.00,,,0.00,Wunderground v.1.15,2013-02-10 08:10:00,
2013-02-10 03:25:00,62.6,58.4,30.15,ENE,71,1.0,4.0,86,0.00,,,0.00,Wunderground v.1.15,2013-02-10 08:25:00,
2013-02-10 03:35:00,62.7,58.1,30.15,ENE,59,1.0,3.0,85,0.00,,,0.00,Wunderground v.1.15,2013-02-10 08:35:00,
2013-02-10 03:50:00,62.7,58.1,30.15,NE,48,0.0,4.0,85,0.00,,,0.00,Wunderground v.1.15,2013-02-10 08:50:00,
2013-02-10 03:55:00,62.6,58.0,30.15,ENE,76,0.0,4.0,85,0.00,,,0.00,Wunderground v.1.15,2013-02-10 08:55:00,
2013-02-10 04:05:00,62.6,58.4,30.15,ENE,65,0.0,4.0,86,0.00,,,0.00,Wunderground v.1.15,2013-02-10 09:05:00,
2013-02-10 04:10:00,62.6,58.4,30.14,ENE,65,0.0,4.0,86,0.00,,,0.00,Wunderground v.1.15,2013-02-10 09:10:00,
2013-02-10 04:20:00,62.6,58.4,30.15,ENE,70,1.0,1.0,86,0.00,,,0.00,Wunderground v.1.15,2013-02-10 09:20:00,
2013-02-10 04:35:00,62.6,58.4,30.15,ENE,74,0.0,4.0,86,0.00,,,0.00,Wunderground v.1.15,2013-02-10 09:35:00,
2013-02-10 04:50:00,62.6,58.4,30.15,ENE,73,0.0,4.0,86,0.00,,,0.00,Wunderground v.1.15,2013-02-10 09:50:00,
2013-02-10 05:05:00,62.8,58.5,30.15,ENE,66,1.0,4.0,86,0.00,,,0.00,Wunderground v.1.15,2013-02-10 10:05:00,
2013-02-10 05:10:00,62.7,58.5,30.15,ENE,74,1.0,1.0,86,0.00,,,0.00,Wunderground v.1.15,2013-02-10 10:10:00,
2013-02-10 05:20:00,62.6,58.4,30.15,ENE,67,0.0,4.0,86,0.00,,,0.00,Wunderground v.1.15,2013-02-10 10:20:00,
2013-02-10 05:35:00,62.6,58.4,30.15,ENE,72,1.0,4.0,86,0.00,,,0.00,Wunderground v.1.15,2013-02-10 10:35:00,
2013-02-10 05:50:00,62.6,58.4,30.15,ENE,68,1.0,1.0,86,0.00,,,0.00,Wunderground v.1.15,2013-02-10 10:50:00,
2013-02-10 06:05:00,62.6,58.4,30.16,East,84,0.0,4.0,86,0.00,,,0.00,Wunderground v.1.15,2013-02-10 11:05:00,
2013-02-10 06:15:00,62.5,58.3,30.16,ENE,74,1.0,5.0,86,0.00,,,0.00,Wunderground v.1.15,2013-02-10 11:15:00,
2013-02-10 06:20:00,62.5,58.3,30.16,ENE,76,1.0,4.0,86,0.00,,,0.00,Wunderground v.1.15,2013-02-10 11:20:00,
2013-02-10 06:30:00,62.5,58.3,30.17,ENE,76,1.0,1.0,86,0.00,,,0.00,Wunderground v.1.15,2013-02-10 11:30:00,
2013-02-10 06:35:00,62.4,58.2,30.17,ENE,76,0.0,4.0,86,0.00,,,0.00,Wunderground v.1.15,2013-02-10 11:35:00,
2013-02-10 06:45:00,62.4,58.2,30.17,ENE,78,1.0,4.0,86,0.00,,,0.00,Wunderground v.1.15,2013-02-10 11:45:00,
2013-02-10 06:50:00,62.4,58.2,30.17,East,85,1.0,4.0,86,0.00,,,0.00,Wunderground v.1.15,2013-02-10 11:50:00,
2013-02-10 07:00:00,62.4,58.2,30.17,ENE,71,0.0,4.0,86,0.00,,,0.00,Wunderground v.1.15,2013-02-10 12:00:00,
2013-02-10 07:05:00,62.5,58.3,30.17,East,94,0.0,4.0,86,0.00,,,0.00,Wunderground v.1.15,2013-02-10 12:05:00,
2013-02-10 07:15:00,62.5,58.3,30.18,ENE,74,0.0,4.0,86,0.00,,,0.00,Wunderground v.1.15,2013-02-10 12:15:00,
2013-02-10 07:20:00,62.5,58.3,30.18,ENE,74,0.0,4.0,86,0.00,,,0.00,Wunderground v.1.15,2013-02-10 12:20:00,
2013-02-10 07:30:00,62.6,58.4,30.19,ENE,74,0.0,4.0,86,0.00,,,0.00,Wunderground v.1.15,2013-02-10 12:30:00,
2013-02-10 07:35:00,62.8,58.5,30.19,ENE,74,0.0,4.0,86,0.00,,,0.00,Wunderground v.1.15,2013-02-10 12:35:00,
2013-02-10 07:40:00,62.9,58.6,30.19,ENE,74,0.0,4.0,86,0.00,,,0.00,Wunderground v.1.15,2013-02-10 12:40:00,
2013-02-10 07:45:00,63.1,58.8,30.19,ENE,78,0.0,4.0,86,0.00,,,0.00,Wunderground v.1.15,2013-02-10 12:45:00,
2013-02-10 07:55:00,63.5,58.9,30.19,ENE,76,1.0,4.0,85,0.00,,,0.00,Wunderground v.1.15,2013-02-10 12:55:00,
2013-02-10 08:00:00,63.6,59.0,30.19,ENE,67,1.0,1.0,85,0.00,,,0.00,Wunderground v.1.15,2013-02-10 13:00:00,
2013-02-10 08:10:00,64.1,59.2,30.20,ENE,67,1.0,7.0,84,0.00,,,0.00,Wunderground v.1.15,2013-02-10 13:10:00,
2013-02-10 08:15:00,64.4,59.5,30.19,NE,44,1.0,7.0,84,0.00,,,0.00,Wunderground v.1.15,2013-02-10 13:15:00,
2013-02-10 08:25:00,64.9,59.6,30.19,NE,55,2.0,4.0,83,0.00,,,0.00,Wunderground v.1.15,2013-02-10 13:25:00,
2013-02-10 08:35:00,65.4,59.8,30.20,East,86,1.0,4.0,82,0.00,,,0.00,Wunderground v.1.15,2013-02-10 13:35:00,
2013-02-10 08:40:00,65.7,60.1,30.20,ENE,65,1.0,1.0,82,0.00,,,0.00,Wunderground v.1.15,2013-02-10 13:40:00,
2013-02-10 08:50:00,66.8,60.4,30.20,ENE,70,1.0,4.0,80,0.00,,,0.00,Wunderground v.1.15,2013-02-10 13:50:00,
2013-02-10 08:55:00,67.3,60.6,30.21,ENE,63,2.0,4.0,79,0.00,,,0.00,Wunderground v.1.15,2013-02-10 13:55:00,
2013-02-10 09:00:00,67.7,61.0,30.21,ENE,67,2.0,2.0,79,0.00,,,0.00,Wunderground v.1.15,2013-02-10 14:00:00,
2013-02-10 09:05:00,68.1,61.0,30.21,East,86,2.0,4.0,78,0.00,,,0.00,Wunderground v.1.15,2013-02-10 14:05:00,
2013-02-10 09:15:00,68.9,61.4,30.21,ENE,69,2.0,4.0,77,0.00,,,0.00,Wunderground v.1.15,2013-02-10 14:15:00,
2013-02-10 09:20:00,69.5,61.6,30.22,ENE,76,2.0,2.0,76,0.00,,,0.00,Wunderground v.1.15,2013-02-10 14:20:00,
2013-02-10 09:25:00,70.1,62.2,30.22,ENE,73,1.0,4.0,76,0.00,,,0.00,Wunderground v.1.15,2013-02-10 14:25:00,
2013-02-10 09:35:00,70.6,62.3,30.22,ENE,69,2.0,4.0,75,0.00,,,0.00,Wunderground v.1.15,2013-02-10 14:35:00,
2013-02-10 09:45:00,71.3,62.2,30.22,ENE,59,3.0,4.0,73,0.00,,,0.00,Wunderground v.1.15,2013-02-10 14:45:00,
2013-02-10 09:50:00,71.4,62.3,30.22,East,92,4.0,9.0,73,0.00,,,0.00,Wunderground v.1.15,2013-02-10 14:50:00,
2013-02-10 10:00:00,72.2,62.7,30.22,NE,42,4.0,4.0,72,0.00,,,0.00,Wunderground v.1.15,2013-02-10 15:00:00,
2013-02-10 10:05:00,72.7,63.1,30.23,ENE,63,3.0,4.0,72,0.00,,,0.00,Wunderground v.1.15,2013-02-10 15:05:00,
2013-02-10 10:15:00,72.9,62.9,30.23,ENE,76,5.0,6.0,71,0.00,,,0.00,Wunderground v.1.15,2013-02-10 15:15:00,
2013-02-10 10:25:00,73.2,63.6,30.23,NE,35,4.0,6.0,72,0.00,,,0.00,Wunderground v.1.15,2013-02-10 15:25:00,
2013-02-10 10:30:00,73.7,63.7,30.23,SE,137,4.0,4.0,71,0.00,,,0.00,Wunderground v.1.15,2013-02-10 15:30:00,
2013-02-10 10:35:00,74.0,63.6,30.23,NE,48,4.0,5.0,70,0.00,,,0.00,Wunderground v.1.15,2013-02-10 15:35:00,
2013-02-10 10:40:00,74.1,63.3,30.23,East,81,5.0,5.0,69,0.00,,,0.00,Wunderground v.1.15,2013-02-10 15:40:00,
2013-02-10 10:50:00,74.6,63.3,30.23,ENE,69,5.0,5.0,68,0.00,,,0.00,Wunderground v.1.15,2013-02-10 15:50:00,
2013-02-10 11:00:00,75.3,62.7,30.23,NNE,28,4.0,4.0,65,0.00,,,0.00,Wunderground v.1.15,2013-02-10 16:00:00,
2013-02-10 11:05:00,75.5,62.9,30.23,ENE,67,4.0,4.0,65,0.00,,,0.00,Wunderground v.1.15,2013-02-10 16:05:00,
2013-02-10 11:10:00,75.8,62.8,30.22,ESE,106,4.0,4.0,64,0.00,,,0.00,Wunderground v.1.15,2013-02-10 16:10:00,
2013-02-10 11:15:00,75.8,62.8,30.22,SE,136,5.0,13.0,64,0.00,,,0.00,Wunderground v.1.15,2013-02-10 16:15:00,
2013-02-10 11:20:00,76.0,63.4,30.22,ENE,61,5.0,5.0,65,0.00,,,0.00,Wunderground v.1.15,2013-02-10 16:20:00,
2013-02-10 11:25:00,76.2,63.1,30.21,NNE,30,4.0,5.0,64,0.00,,,0.00,Wunderground v.1.15,2013-02-10 16:25:00,
2013-02-10 11:30:00,76.2,63.1,30.21,East,96,4.0,4.0,64,0.00,,,0.00,Wunderground v.1.15,2013-02-10 16:30:00,
2013-02-10 11:35:00,76.4,63.3,30.21,ENE,69,4.0,4.0,64,0.00,,,0.00,Wunderground v.1.15,2013-02-10 16:35:00,
2013-02-10 11:45:00,77.1,64.0,30.21,ENE,72,3.0,5.0,64,0.00,,,0.00,Wunderground v.1.15,2013-02-10 16:45:00,
2013-02-10 11:50:00,77.4,63.8,30.20,ESE,108,4.0,7.0,63,0.00,,,0.00,Wunderground v.1.15,2013-02-10 16:50:00,
2013-02-10 12:00:00,77.9,63.8,30.20,SE,134,4.0,4.0,62,0.00,,,0.00,Wunderground v.1.15,2013-02-10 17:00:00,
2013-02-10 12:05:00,77.8,63.3,30.20,ESE,110,4.0,5.0,61,0.00,,,0.00,Wunderground v.1.15,2013-02-10 17:05:00,
2013-02-10 12:15:00,78.3,63.7,30.20,East,88,4.0,5.0,61,0.00,,,0.00,Wunderground v.1.15,2013-02-10 17:15:00,
2013-02-10 12:20:00,78.5,63.5,30.20,East,89,4.0,7.0,60,0.00,,,0.00,Wunderground v.1.15,2013-02-10 17:20:00,
2013-02-10 12:25:00,78.1,63.1,30.20,NNE,29,4.0,7.0,60,0.00,,,0.00,Wunderground v.1.15,2013-02-10 17:25:00,
2013-02-10 12:35:00,78.5,63.9,30.19,ESE,116,3.0,6.0,61,0.00,,,0.00,Wunderground v.1.15,2013-02-10 17:35:00,
2013-02-10 12:45:00,77.9,63.4,30.18,South,178,3.0,4.0,61,0.00,,,0.00,Wunderground v.1.15,2013-02-10 17:45:00,
2013-02-10 12:50:00,78.2,63.2,30.18,NNE,12,4.0,4.0,60,0.00,,,0.00,Wunderground v.1.15,2013-02-10 17:50:00,
2013-02-10 13:00:00,79.1,63.5,30.17,ESE,106,3.0,3.0,59,0.00,,,0.00,Wunderground v.1.15,2013-02-10 18:00:00,
2013-02-10 13:10:00,79.2,63.6,30.16,ENE,66,5.0,5.0,59,0.00,,,0.00,Wunderground v.1.15,2013-02-10 18:10:00,
2013-02-10 13:15:00,79.3,63.7,30.16,ESE,113,4.0,7.0,59,0.00,,,0.00,Wunderground v.1.15,2013-02-10 18:15:00,
2013-02-10 13:20:00,79.1,63.1,30.16,ENE,67,3.0,3.0,58,0.00,,,0.00,Wunderground v.1.15,2013-02-10 18:20:00,
2013-02-10 13:30:00,79.5,62.9,30.15,East,88,3.0,3.0,57,0.00,,,0.00,Wunderground v.1.15,2013-02-10 18:30:00,
2013-02-10 13:40:00,80.0,62.9,30.15,SSE,163,3.0,4.0,56,0.00,,,0.00,Wunderground v.1.15,2013-02-10 18:40:00,
2013-02-10 13:45:00,79.5,62.9,30.15,East,86,2.0,7.0,57,0.00,,,0.00,Wunderground v.1.15,2013-02-10 18:45:00,
2013-02-10 13:55:00,79.1,63.1,30.14,East,81,3.0,4.0,58,0.00,,,0.00,Wunderground v.1.15,2013-02-10 18:55:00,
2013-02-10 14:05:00,79.2,62.7,30.14,East,85,2.0,3.0,57,0.00,,,0.00,Wunderground v.1.15,2013-02-10 19:05:00,
2013-02-10 14:15:00,79.9,62.3,30.14,SSE,150,3.0,5.0,55,0.00,,,0.00,Wunderground v.1.15,2013-02-10 19:15:00,
2013-02-10 14:25:00,79.7,62.1,30.13,NNE,28,3.0,4.0,55,0.00,,,0.00,Wunderground v.1.15,2013-02-10 19:25:00,
2013-02-10 14:30:00,79.4,62.3,30.13,SE,132,2.0,2.0,56,0.00,,,0.00,Wunderground v.1.15,2013-02-10 19:30:00,
2013-02-10 14:35:00,79.2,62.1,30.13,South,186,2.0,3.0,56,0.00,,,0.00,Wunderground v.1.15,2013-02-10 19:35:00,
2013-02-10 14:45:00,79.8,61.7,30.13,East,97,3.0,4.0,54,0.00,,,0.00,Wunderground v.1.15,2013-02-10 19:45:00,
2013-02-10 14:50:00,80.4,62.8,30.13,ESE,111,4.0,4.0,55,0.00,,,0.00,Wunderground v.1.15,2013-02-10 19:50:00,
2013-02-10 15:00:00,80.8,63.1,30.13,South,179,4.0,4.0,55,0.00,,,0.00,Wunderground v.1.15,2013-02-10 20:00:00,
2013-02-10 15:05:00,79.6,63.5,30.13,SSE,162,5.0,5.0,58,0.00,,,0.00,Wunderground v.1.15,2013-02-10 20:05:00,
2013-02-10 15:10:00,79.1,64.0,30.13,SE,145,4.0,5.0,60,0.00,,,0.00,Wunderground v.1.15,2013-02-10 20:10:00,
2013-02-10 15:15:00,78.7,64.6,30.13,SSW,204,3.0,5.0,62,0.00,,,0.00,Wunderground v.1.15,2013-02-10 20:15:00,
2013-02-10 15:20:00,78.6,64.5,30.12,SE,136,4.0,6.0,62,0.00,,,0.00,Wunderground v.1.15,2013-02-10 20:20:00,
2013-02-10 15:25:00,79.3,64.2,30.12,SSE,155,3.0,7.0,60,0.00,,,0.00,Wunderground v.1.15,2013-02-10 20:25:00,
2013-02-10 15:30:00,79.6,64.0,30.12,SSE,152,4.0,9.0,59,0.00,,,0.00,Wunderground v.1.15,2013-02-10 20:30:00,
2013-02-10 15:40:00,79.3,63.7,30.12,South,180,5.0,7.0,59,0.00,,,0.00,Wunderground v.1.15,2013-02-10 20:40:00,
2013-02-10 15:45:00,79.3,63.7,30.12,SSE,157,5.0,7.0,59,0.00,,,0.00,Wunderground v.1.15,2013-02-10 20:45:00,
2013-02-10 15:50:00,78.7,63.6,30.12,South,170,5.0,5.0,60,0.00,,,0.00,Wunderground v.1.15,2013-02-10 20:50:00,
2013-02-10 15:55:00,78.3,63.3,30.12,SSW,205,4.0,5.0,60,0.00,,,0.00,Wunderground v.1.15,2013-02-10 20:55:00,
2013-02-10 16:00:00,77.8,63.3,30.12,SSE,157,4.0,4.0,61,0.00,,,0.00,Wunderground v.1.15,2013-02-10 21:00:00,
2013-02-10 16:10:00,77.4,63.4,30.13,South,180,4.0,6.0,62,0.00,,,0.00,Wunderground v.1.15,2013-02-10 21:10:00,
2013-02-10 16:15:00,77.2,63.6,30.12,SSW,209,5.0,6.0,63,0.00,,,0.00,Wunderground v.1.15,2013-02-10 21:15:00,
2013-02-10 16:20:00,76.8,63.2,30.13,SSW,204,5.0,5.0,63,0.00,,,0.00,Wunderground v.1.15,2013-02-10 21:20:00,
2013-02-10 16:25:00,76.9,64.2,30.12,South,170,4.0,5.0,65,0.00,,,0.00,Wunderground v.1.15,2013-02-10 21:25:00,
2013-02-10 16:30:00,76.9,64.2,30.13,South,190,4.0,10.0,65,0.00,,,0.00,Wunderground v.1.15,2013-02-10 21:30:00,
2013-02-10 16:35:00,76.2,64.4,30.13,SSW,209,5.0,10.0,67,0.00,,,0.00,Wunderground v.1.15,2013-02-10 21:35:00,
2013-02-10 16:40:00,75.7,64.0,30.13,SSW,205,5.0,5.0,67,0.00,,,0.00,Wunderground v.1.15,2013-02-10 21:40:00,
2013-02-10 16:50:00,75.6,64.3,30.13,South,182,4.0,4.0,68,0.00,,,0.00,Wunderground v.1.15,2013-02-10 21:50:00,
2013-02-10 16:55:00,75.5,63.8,30.14,South,184,4.0,6.0,67,0.00,,,0.00,Wunderground v.1.15,2013-02-10 21:55:00,
2013-02-10 17:00:00,75.5,64.2,30.13,SSW,195,4.0,8.0,68,0.00,,,0.00,Wunderground v.1.15,2013-02-10 22:00:00,
2013-02-10 17:10:00,75.3,64.4,30.14,SW,232,4.0,5.0,69,0.00,,,0.00,Wunderground v.1.15,2013-02-10 22:10:00,
2013-02-10 17:20:00,74.3,64.3,30.14,SSE,148,5.0,5.0,71,0.00,,,0.00,Wunderground v.1.15,2013-02-10 22:20:00,
2013-02-10 17:25:00,74.0,64.4,30.14,South,189,4.0,5.0,72,0.00,,,0.00,Wunderground v.1.15,2013-02-10 22:25:00,
2013-02-10 17:30:00,73.8,64.6,30.14,SSW,192,3.0,6.0,73,0.00,,,0.00,Wunderground v.1.15,2013-02-10 22:30:00,
2013-02-10 17:35:00,73.6,64.4,30.14,South,171,3.0,6.0,73,0.00,,,0.00,Wunderground v.1.15,2013-02-10 22:35:00,
2013-02-10 17:40:00,73.6,64.4,30.14,South,177,3.0,4.0,73,0.00,,,0.00,Wunderground v.1.15,2013-02-10 22:40:00,
2013-02-10 17:45:00,73.5,64.7,30.14,South,170,3.0,4.0,74,0.00,,,0.00,Wunderground v.1.15,2013-02-10 22:45:00,
2013-02-10 17:50:00,73.3,64.5,30.14,SSW,192,3.0,3.0,74,0.00,,,0.00,Wunderground v.1.15,2013-02-10 22:50:00,
2013-02-10 18:00:00,73.1,64.3,30.14,SSE,151,2.0,6.0,74,0.00,,,0.00,Wunderground v.1.15,2013-02-10 23:00:00,
2013-02-10 18:05:00,72.9,64.5,30.14,SSE,164,3.0,6.0,75,0.00,,,0.00,Wunderground v.1.15,2013-02-10 23:05:00,
2013-02-10 18:10:00,72.7,64.3,30.15,South,175,3.0,3.0,75,0.00,,,0.00,Wunderground v.1.15,2013-02-10 23:10:00,
2013-02-10 18:20:00,72.5,64.5,30.14,South,187,3.0,6.0,76,0.00,,,0.00,Wunderground v.1.15,2013-02-10 23:20:00,
2013-02-10 18:25:00,72.3,64.3,30.14,South,185,3.0,6.0,76,0.00,,,0.00,Wunderground v.1.15,2013-02-10 23:25:00,
2013-02-10 18:30:00,72.2,64.2,30.14,South,181,3.0,4.0,76,0.00,,,0.00,Wunderground v.1.15,2013-02-10 23:30:00,
2013-02-10 18:35:00,72.1,64.5,30.14,SE,132,3.0,4.0,77,0.00,,,0.00,Wunderground v.1.15,2013-02-10 23:35:00,
2013-02-10 18:40:00,71.9,64.3,30.15,SSE,165,2.0,2.0,77,0.00,,,0.00,Wunderground v.1.15,2013-02-10 23:40:00,
2013-02-10 18:45:00,71.7,64.5,30.15,SSE,161,2.0,3.0,78,0.00,,,0.00,Wunderground v.1.15,2013-02-10 23:45:00,
2013-02-10 18:50:00,71.6,64.4,30.15,South,175,3.0,4.0,78,0.00,,,0.00,Wunderground v.1.15,2013-02-10 23:50:00,
2013-02-10 18:55:00,71.5,64.3,30.15,South,177,2.0,4.0,78,0.00,,,0.00,Wunderground v.1.15,2013-02-10 23:55:00,
2013-02-10 19:05:00,71.3,64.4,30.15,South,177,0.0,4.0,79,0.00,,,0.00,Wunderground v.1.15,2013-02-11 00:05:00,
2013-02-10 19:10:00,71.3,64.1,30.15,South,169,0.0,4.0,78,0.00,,,0.00,Wunderground v.1.15,2013-02-11 00:10:00,
2013-02-10 19:15:00,71.2,64.0,30.16,South,169,0.0,4.0,78,0.00,,,0.00,Wunderground v.1.15,2013-02-11 00:15:00,
2013-02-10 19:25:00,71.2,64.0,30.16,South,169,0.0,4.0,78,0.00,,,0.00,Wunderground v.1.15,2013-02-11 00:25:00,
2013-02-10 19:30:00,71.1,63.9,30.16,South,169,0.0,4.0,78,0.00,,,0.00,Wunderground v.1.15,2013-02-11 00:30:00,
2013-02-10 19:40:00,70.9,63.7,30.16,South,169,0.0,4.0,78,0.00,,,0.00,Wunderground v.1.15,2013-02-11 00:40:00,
2013-02-10 19:45:00,70.8,63.6,30.16,South,169,0.0,4.0,78,0.00,,,0.00,Wunderground v.1.15,2013-02-11 00:45:00,
2013-02-10 19:50:00,70.8,63.2,30.16,SE,124,0.0,4.0,77,0.00,,,0.00,Wunderground v.1.15,2013-02-11 00:50:00,
2013-02-10 19:55:00,71.1,62.8,30.16,SE,124,0.0,4.0,75,0.00,,,0.00,Wunderground v.1.15,2013-02-11 00:55:00,
2013-02-10 20:00:00,71.4,62.7,30.17,East,98,0.0,4.0,74,0.00,,,0.00,Wunderground v.1.15,2013-02-11 01:00:00,
2013-02-10 20:10:00,72.0,62.5,30.17,ESE,108,1.0,6.0,72,0.00,,,0.00,Wunderground v.1.15,2013-02-11 01:10:00,
2013-02-10 20:15:00,72.1,62.2,30.18,SE,135,2.0,6.0,71,0.00,,,0.00,Wunderground v.1.15,2013-02-11 01:15:00,
2013-02-10 20:20:00,72.1,62.2,30.18,ESE,121,2.0,2.0,71,0.00,,,0.00,Wunderground v.1.15,2013-02-11 01:20:00,
2013-02-10 20:30:00,72.1,62.2,30.18,ESE,105,2.0,4.0,71,0.00,,,0.00,Wunderground v.1.15,2013-02-11 01:30:00,
2013-02-10 20:40:00,71.9,62.4,30.18,East,86,2.0,2.0,72,0.00,,,0.00,Wunderground v.1.15,2013-02-11 01:40:00,
2013-02-10 20:50:00,71.5,62.0,30.18,SE,136,2.0,4.0,72,0.00,,,0.00,Wunderground v.1.15,2013-02-11 01:50:00,
2013-02-10 20:55:00,71.3,62.2,30.18,ESE,116,2.0,4.0,73,0.00,,,0.00,Wunderground v.1.15,2013-02-11 01:55:00,
2013-02-10 21:05:00,71.0,61.9,30.18,ESE,115,2.0,4.0,73,0.00,,,0.00,Wunderground v.1.15,2013-02-11 02:05:00,
2013-02-10 21:15:00,70.6,61.9,30.18,ESE,114,0.0,4.0,74,0.00,,,0.00,Wunderground v.1.15,2013-02-11 02:15:00,
2013-02-10 21:25:00,70.1,61.8,30.18,SE,138,1.0,4.0,75,0.00,,,0.00,Wunderground v.1.15,2013-02-11 02:25:00,
2013-02-10 21:35:00,69.9,61.6,30.18,ESE,109,1.0,2.0,75,0.00,,,0.00,Wunderground v.1.15,2013-02-11 02:35:00,
2013-02-10 21:45:00,69.6,61.7,30.18,East,100,1.0,4.0,76,0.00,,,0.00,Wunderground v.1.15,2013-02-11 02:45:00,
2013-02-10 21:50:00,69.4,61.5,30.18,East,94,1.0,1.0,76,0.00,,,0.00,Wunderground v.1.15,2013-02-11 02:50:00,
2013-02-10 21:55:00,69.3,61.4,30.18,ESE,103,1.0,4.0,76,0.00,,,0.00,Wunderground v.1.15,2013-02-11 02:55:00,
2013-02-10 22:05:00,69.0,61.5,30.18,East,101,1.0,4.0,77,0.00,,,0.00,Wunderground v.1.15,2013-02-11 03:05:00,
2013-02-10 22:10:00,68.8,61.3,30.18,East,101,0.0,4.0,77,0.00,,,0.00,Wunderground v.1.15,2013-02-11 03:10:00,
2013-02-10 22:20:00,68.5,61.4,30.18,ENE,67,0.0,4.0,78,0.00,,,0.00,Wunderground v.1.15,2013-02-11 03:20:00,
2013-02-10 22:25:00,68.4,61.3,30.18,ENE,67,0.0,4.0,78,0.00,,,0.00,Wunderground v.1.15,2013-02-11 03:25:00,
2013-02-10 22:35:00,68.0,61.2,30.18,ENE,68,0.0,4.0,79,0.00,,,0.00,Wunderground v.1.15,2013-02-11 03:35:00,
2013-02-10 22:40:00,67.8,61.0,30.18,ENE,68,0.0,4.0,79,0.00,,,0.00,Wunderground v.1.15,2013-02-11 03:40:00,
2013-02-10 22:45:00,67.7,61.3,30.18,ENE,68,0.0,4.0,80,0.00,,,0.00,Wunderground v.1.15,2013-02-11 03:45:00,
2013-02-10 22:55:00,67.4,61.0,30.18,ENE,67,0.0,4.0,80,0.00,,,0.00,Wunderground v.1.15,2013-02-11 03:55:00,
2013-02-10 23:00:00,67.3,60.9,30.18,ENE,67,0.0,4.0,80,0.00,,,0.00,Wunderground v.1.15,2013-02-11 04:00:00,
2013-02-10 23:05:00,67.1,61.1,30.18,ENE,67,0.0,4.0,81,0.00,,,0.00,Wunderground v.1.15,2013-02-11 04:05:00,
2013-02-10 23:10:00,67.0,61.0,30.18,ENE,68,0.0,4.0,81,0.00,,,0.00,Wunderground v.1.15,2013-02-11 04:10:00,
2013-02-10 23:20:00,66.8,60.8,30.18,ENE,68,0.0,4.0,81,0.00,,,0.00,Wunderground v.1.15,2013-02-11 04:20:00,
2013-02-10 23:25:00,66.7,61.0,30.18,ENE,67,0.0,4.0,82,0.00,,,0.00,Wunderground v.1.15,2013-02-11 04:25:00,
2013-02-10 23:30:00,66.6,60.9,30.18,ENE,68,0.0,4.0,82,0.00,,,0.00,Wunderground v.1.15,2013-02-11 04:30:00,
2013-02-10 23:35:00,66.4,60.7,30.18,ENE,68,0.0,4.0,82,0.00,,,0.00,Wunderground v.1.15,2013-02-11 04:35:00,
2013-02-10 23:40:00,66.4,60.7,30.17,East,93,0.0,4.0,82,0.00,,,0.00,Wunderground v.1.15,2013-02-11 04:40:00,
2013-02-10 23:45:00,66.3,60.6,30.18,East,92,0.0,4.0,82,0.00,,,0.00,Wunderground v.1.15,2013-02-11 04:45:00,
2013-02-10 23:50:00,66.2,60.9,30.18,East,92,0.0,4.0,83,0.00,,,0.00,Wunderground v.1.15,2013-02-11 04:50:00,
2013-02-10 23:55:00,66.2,60.9,30.17,ESE,113,0.0,4.0,83,0.00,,,0.00,Wunderground v.1.15,2013-02-11 04:55:00,